Location: Bow
(51.5261°N, 0.0167°W)
Time: 04:18:41
(UTC+00:00)

Cosmos 1842 - Pass Details

Date: 18 September 2020
Orbit: 521 x 537 km, 82.5° (Epoch: 20 October)

Event Time Altitude Azimuth Distance (km) Brightness Sun altitude
Rises 19:00:05 0° 346° (NNW) 2,665 7.2 -9.0°
Reaches altitude 10° 19:02:15 10° 342° (NNW) 1,771 6.4 -9.4°
Maximum altitude 19:06:03 55° 264° (W) 634 4.0 -9.9°
Drops below altitude 10° 19:09:50 10° 187° (S) 1,758 5.8 -10.5°
Sets 19:11:59 0° 182° (S) 2,643 6.7 -10.8°
